Find Starlink 30841

NORAD ID: 58208 Int'l Des: 2023-170 Owner: SPXS Country: US Constellation: starlink operational
LEOCIRCULAR

リアルタイム位置

3D地球を読み込み中...

Starlink 30841について

説明を読み込み中...

次回通過

Passes for default location (London). Set your location on the main map for personalized predictions.

高度履歴

Loading altitude history...

軌道要素

1 58208U 23170C 26120.78299336 .00001699 00000-0 71264-4 0 9993
2 58208 43.0075 260.2584 0002233 284.3386 75.7218 15.27575984138268
Epoch: Apr 30, 2026 • Age: 21 hours

現在のステータス

高度 485.2 km
速度 7.63 km/s
衛星直下点 30.81°N, 60.23°W
打ち上げ日 Nov 4, 2023
運用期間 2.4 years
タイプ internet

技術仕様

分類 Payload
質量 730.00 kg
乾燥質量 700.00 kg
総質量 730.00 kg
長さ 0.30 m
直径 4.10 m
スパン 29.00 m
形状 Box + pan
製造者 SPXS
バスタイプ Starlink V2M
フェーズステータス In Orbit
所有者/国 SPXS/US

Most Searched